Wind_Speed
28 28 28 29 29 29 30 30 31 30 29 26 24 23 22 20 17 15 12 10 6 3 1 4 6 9 11 13 14 16 16 16 16 15 14 12 11 9 7 6 4 3 4 5 8 9 11 12 14 14 14 14 13 11 10 10 9 9 9 9 9 9 9 10 12 14 16 18 19
27 27 27 28 28 28 29 29 29 28 25 23 21 19 17 15 12 9 7 4 1 3 6 10 12 14 15 15 16 16 16 15 13 12 11 9 8 6 6 6 6 7 10 13 13 14 15 15 15 13 12 11 10 9 9 9 9 8 8 8 8 9 10 13 15 17 18 20 20
26 26 26 26 26 26 26 26 26 24 21 19 17 14 12 10 7 5 2 2 5 8 11 13 14 15 16 15 14 13 12 11 10 9 8 8 7 7 8 11 12 13 15 16 16 15 15 13 12 10 8 7 7 7 7 7 6 7 7 8 9 10 13 15 17 18 19 19 19
24 24 24 24 24 24 23 23 22 20 18 15 13 10 8 5 3 1 4 6 9 11 13 14 15 14 14 13 12 10 9 8 7 7 8 9 9 9 10 14 16 16 15 16 15 14 12 10 9 7 6 6 5 5 5 5 5 7 8 10 11 13 15 17 18 18 18 18 18
22 22 22 22 21 21 20 19 18 16 14 11 9 6 4 1 3 6 8 10 11 12 13 13 13 12 11 10 9 8 7 6 6 8 9 11 10 10 12 15 16 15 15 14 13 11 10 9 8 7 6 6 5 5 5 6 7 9 11 13 14 16 17 18 18 18 17 17 18
20 20 20 19 19 18 16 15 13 12 10 7 4 2 2 6 7 8 9 11 12 13 12 11 10 9 8 7 7 7 6 7 8 9 10 11 12 12 14 15 15 14 13 12 12 11 10 9 8 8 7 7 8 8 9 10 11 13 14 15 16 17 17 17 17 17 17 17 18
18 18 17 17 16 15 13 11 10 7 5 3 1 4 6 8 8 9 11 12 12 12 11 10 9 8 7 6 7 7 8 8 10 11 12 13 13 13 14 13 13 12 12 12 11 10 9 8 9 9 9 10 11 11 12 13 14 15 16 17 17 17 18 18 19 18 18 18 18
17 16 15 15 14 12 10 8 6 4 1 2 4 6 7 8 9 11 12 12 11 11 10 9 9 8 8 8 9 9 10 10 11 12 13 13 13 12 12 12 11 11 11 10 10 9 8 9 10 10 11 12 13 13 14 14 15 16 17 18 18 19 19 19 19 19 18 18 18
16 15 14 12 11 10 8 5 3 1 2 4 5 7 8 9 10 11 11 11 10 10 9 9 10 11 11 10 11 11 11 11 11 11 11 11 11 11 11 10 10 9 9 8 8 8 9 10 12 13 13 14 15 15 16 16 17 17 18 19 19 19 18 18 17 17 17 18 18
14 13 12 10 8 7 4 2 0 1 3 4 6 8 9 10 10 10 10 9 9 9 10 12 12 13 13 12 12 12 11 11 10 10 10 10 10 10 9 9 8 7 7 7 8 9 10 12 13 14 15 16 16 17 17 17 18 18 18 18 18 17 17 17 17 18 18 18 19
14 12 10 7 5 3 2 1 1 2 4 6 7 8 8 7 7 8 8 9 11 12 13 14 14 13 13 12 12 11 10 10 9 9 9 9 9 8 7 6 5 6 7 8 9 11 12 13 15 16 16 16 17 18 18 18 17 18 18 17 17 17 18 18 18 18 19 19 20
12 11 8 6 4 3 2 1 2 3 5 6 6 6 5 4 5 6 8 10 12 13 13 14 13 12 11 10 10 9 8 8 7 7 8 8 7 6 6 6 7 9 10 11 12 13 14 15 16 16 17 17 17 17 17 17 17 17 18 18 18 18 18 19 19 20 20 21 21
12 10 8 6 4 3 3 2 3 4 4 5 4 3 3 3 4 5 7 10 11 12 13 13 12 11 10 8 8 7 7 6 5 5 6 6 7 7 8 9 10 11 12 13 14 15 16 16 17 17 17 18 18 18 18 18 18 18 18 18 18 19 19 20 21 21 22 22 23
11 8 7 5 4 3 3 3 3 3 3 3 3 3 3 3 3 4 7 9 11 12 12 12 11 10 8 7 7 6 5 4 4 5 6 7 8 9 11 12 12 13 14 15 15 16 17 17 18 18 18 19 19 19 19 18 18 18 18 19 19 20 21 22 22 23 23 23 24
8 6 5 4 4 4 3 3 3 3 2 3 2 2 2 2 2 4 6 8 10 11 11 10 9 8 7 6 5 4 4 4 5 6 7 9 10 11 12 13 13 14 15 16 17 18 18 19 19 19 19 19 19 19 19 19 19 19 20 21 21 22 22 23 23 23 23 24 24
6 5 4 4 4 3 3 3 2 2 2 3 2 2 2 1 2 3 6 8 10 10 10 8 7 5 5 4 4 4 4 5 7 8 9 10 11 12 13 14 15 16 17 18 18 19 19 19 19 19 19 19 19 19 20 20 20 21 21 22 23 23 23 24 24 24 24 24 24
5 4 4 4 3 3 2 2 2 3 3 3 3 3 2 1 1 3 6 8 10 10 8 6 5 4 4 4 5 6 7 8 9 9 10 11 12 13 14 15 16 17 18 18 18 18 18 18 18 18 19 19 20 20 21 21 22 22 23 23 23 24 24 24 24 24 24 25 25
6 5 4 4 3 3 3 3 3 4 4 4 4 4 3 2 2 4 7 9 10 9 7 5 5 5 6 7 7 8 8 9 9 10 10 11 13 14 15 17 17 18 18 18 18 18 18 18 18 19 19 20 21 21 22 22 23 23 23 24 24 24 24 24 24 24 25 25 25
7 7 6 5 5 4 4 4 5 5 5 5 5 4 3 3 4 6 9 10 9 8 6 6 6 7 7 8 8 8 9 9 10 11 11 13 14 15 17 18 18 19 19 18 18 18 18 19 19 20 20 21 22 22 23 23 23 23 23 24 24 24 24 24 24 24 24 24 25
8 8 7 7 6 6 6 6 6 6 6 6 5 4 4 5 7 9 10 10 8 7 7 7 7 7 8 9 9 9 10 11 11 12 13 14 15 17 18 19 19 19 19 18 18 18 19 19 20 21 21 22 22 23 23 23 23 23 23 23 23 23 24 24 24 24 24 24 24
9 9 8 8 7 7 7 7 7 7 7 6 5 5 5 7 10 11 11 10 9 8 8 8 8 9 9 10 11 11 12 12 13 14 15 16 17 18 19 20 19 19 18 18 18 19 19 20 21 21 22 22 22 22 22 22 22 22 23 23 23 23 23 23 23 23 23 24 24
11 10 10 9 8 8 8 8 8 8 7 6 5 6 8 10 11 12 11 10 10 10 11 11 11 11 12 12 12 13 13 13 14 15 16 18 19 20 20 20 19 18 18 18 18 19 20 20 21 21 21 21 21 21 21 21 21 22 22 22 23 23 23 23 23 23 23 23 23
12 11 11 10 9 9 9 10 9 8 7 6 7 9 11 13 13 13 12 12 12 12 13 13 13 13 13 13 13 13 14 15 16 17 19 20 21 21 20 19 18 17 18 18 19 19 20 20 21 21 21 21 21 21 21 21 21 21 22 22 23 23 23 24 24 24 24 24 24
12 12 11 11 10 10 10 10 8 7 7 9 11 12 13 13 13 13 13 13 13 13 14 14 14 14 14 14 14 14 15 16 18 19 21 21 21 20 18 17 17 17 18 19 19 20 20 20 20 21 21 21 21 21 21 21 21 21 22 22 23 23 24 24 24 24 24 24 25
13 13 12 11 11 10 10 8 8 9 11 12 13 14 14 13 13 13 12 12 12 13 13 14 14 14 14 14 15 15 16 18 20 21 21 20 19 18 17 17 17 18 19 20 20 20 20 20 20 20 20 21 21 21 21 21 21 21 22 22 23 23 24 25 25 25 25 26 26
13 12 11 10 10 9 8 8 10 12 13 14 14 14 13 12 12 11 11 11 12 12 13 13 14 14 15 15 16 17 18 20 20 20 19 18 17 17 17 18 18 19 20 20 20 20 20 20 20 20 21 21 21 21 21 21 21 21 21 22 22 23 24 25 26 26 27 27 28
12 11 11 10 9 8 9 10 11 13 14 14 14 13 12 11 10 10 10 11 11 12 13 13 14 15 16 17 18 19 20 20 19 18 17 16 17 17 18 19 20 20 20 20 20 21 21 21 21 21 20 20 20 20 20 20 21 21 21 22 22 23 24 25 26 27 28 29 29
12 12 12 10 9 10 10 11 12 13 13 13 12 11 10 9 9 9 10 10 11 12 13 14 15 16 17 18 19 20 19 18 17 16 16 16 17 18 19 20 20 20 20 21 21 21 21 21 21 20 20 19 19 19 20 20 20 21 21 22 23 23 24 25 26 27 28 29 29
14 13 12 11 11 12 12 13 13 12 12 11 10 10 9 9 9 10 10 11 12 13 14 15 16 17 18 19 19 18 17 15 15 15 16 18 19 19 20 20 20 21 21 21 21 21 21 21 20 20 19 19 18 18 19 19 20 21 22 23 24 24 25 26 27 27 28 28 29
13 13 12 12 12 13 14 14 13 12 12 11 10 10 10 10 10 11 11 12 12 14 15 16 18 18 18 17 16 15 15 15 16 17 17 18 19 20 20 21 21 21 22 22 22 21 21 20 20 19 18 17 17 18 19 19 20 22 23 24 25 25 26 27 27 27 27 27 28
12 12 12 12 13 13 13 13 13 12 12 11 11 11 11 11 11 11 12 12 14 15 17 18 18 17 16 15 14 14 15 16 17 17 18 18 19 20 21 21 22 22 22 22 21 21 20 19 18 18 17 17 17 18 19 20 22 23 24 25 25 26 26 26 26 26 26 26 26
10 10 10 10 10 10 11 11 11 11 11 11 11 11 11 12 12 12 13 14 16 17 18 17 16 15 14 14 14 15 16 17 17 18 18 19 20 20 21 22 22 22 22 21 20 20 19 18 17 17 17 18 18 19 21 22 23 24 25 25 26 26 25 25 25 25 25 25 26
5 5 6 7 7 8 8 9 9 10 10 10 11 11 12 13 13 14 16 16 17 17 16 14 13 13 13 14 15 16 17 17 18 18 19 19 20 21 22 22 22 21 21 20 19 18 17 17 17 17 18 18 19 21 22 23 24 24 25 25 25 24 24 24 24 24 24 25 25
6 7 8 9 9 10 10 10 11 11 12 12 12 12 13 14 15 16 17 16 15 14 13 12 12 13 14 15 15 16 17 18 18 19 19 20 20 21 21 22 21 20 19 18 17 17 17 17 17 18 19 20 21 22 23 23 24 24 24 24 24 24 23 23 23 23 23 24 24
10 11 12 12 13 13 13 14 14 14 14 14 14 14 14 15 16 16 16 15 14 13 12 12 13 14 15 15 16 17 17 18 19 19 20 20 20 21 21 21 20 19 17 16 16 16 17 17 18 19 20 21 22 22 23 23 23 24 24 23 23 23 22 22 22 22 23 23 23
13 14 14 15 15 16 16 16 16 16 16 15 15 14 14 14 14 14 13 13 12 12 13 14 15 15 16 17 17 17 18 18 19 19 20 20 20 20 19 19 19 17 16 16 16 17 18 19 20 20 21 21 22 22 22 23 23 23 23 22 22 22 22 21 22 22 22 22 21
15 15 15 15 15 16 16 16 16 16 15 15 14 14 13 13 12 11 11 12 12 14 15 16 17 17 17 18 18 18 18 18 19 19 19 19 19 18 18 18 18 17 17 17 17 18 19 20 21 21 21 21 22 22 22 23 22 22 21 21 21 21 21 21 21 21 21 20 20
15 14 14 14 15 15 15 14 14 14 14 13 12 12 11 11 11 11 12 13 14 16 17 18 18 18 18 18 18 18 18 18 18 18 18 18 18 17 17 18 18 18 17 18 18 19 20 21 21 21 21 21 22 22 22 22 22 21 21 20 20 21 21 21 20 20 20 20 20
14 14 14 14 14 14 14 13 13 13 12 12 12 12 12 12 12 13 14 15 17 18 18 19 19 19 18 18 18 18 18 17 17 17 17 17 17 17 17 17 18 18 18 19 19 20 21 22 22 21 21 21 21 22 22 22 22 22 21 21 21 21 21 21 20 20 21 22 23
13 14 14 14 14 14 14 14 14 14 14 14 14 14 15 15 15 16 17 18 18 19 19 19 19 19 18 18 18 17 18 17 17 17 16 16 16 16 17 17 18 19 19 20 20 21 22 22 22 21 21 21 21 22 22 22 22 22 22 21 21 21 22 22 22 23 24 25 25
12 13 14 14 14 15 15 15 15 16 16 16 16 16 17 17 17 18 19 19 20 20 20 19 19 18 18 17 17 17 17 17 17 17 16 16 16 16 16 17 18 19 20 20 21 22 22 22 22 21 21 21 22 22 22 22 22 22 22 22 22 23 23 24 24 24 24 23 23
Wind_Direction
340 338 335 333 330 328 325 324 323 321 321 320 320 320 320 321 320 318 316 313 305 290 204 149 141 137 132 129 127 126 125 125 123 123 123 123 120 118 112 94 85 65 28 360 348 342 337 333 330 326 323 319 316 315 318 323 328 331 335 336 335 332 326 317 307 300 294 291 291
338 336 334 331 329 327 325 323 323 322 322 322 322 322 322 323 323 323 323 324 316 139 132 127 126 125 124 123 122 120 118 118 116 114 111 102 94 85 65 37 22 5 355 350 345 342 340 336 333 329 324 320 318 319 322 326 330 335 337 335 329 321 311 302 297 293 291 291 294
336 334 331 329 327 325 324 323 322 323 323 323 323 323 323 322 322 327 347 92 128 131 128 125 124 123 122 121 118 115 111 107 103 95 81 64 51 34 16 3 355 350 348 347 344 342 340 339 337 335 332 329 327 327 329 335 340 338 331 321 313 305 298 292 289 287 288 290 292
334 331 329 327 325 324 324 323 323 323 323 323 321 322 324 325 334 64 115 124 128 128 127 127 125 122 118 115 111 106 98 89 81 60 39 25 16 6 354 347 346 345 345 346 346 346 346 346 347 349 352 354 355 353 350 347 338 323 310 304 298 292 287 283 283 284 286 289 291
332 329 327 325 324 324 324 323 323 323 323 320 319 322 333 61 110 117 121 123 123 123 124 123 121 116 109 100 95 88 77 61 41 23 10 2 355 347 342 341 343 346 348 349 350 351 351 353 356 359 2 3 356 344 330 319 308 300 296 293 287 283 281 280 284 288 291 293 294
331 328 326 325 324 324 324 323 322 321 320 318 320 333 109 121 120 120 119 118 116 114 112 110 105 97 86 74 64 54 40 24 8 358 349 344 340 338 339 342 345 349 352 352 352 352 352 354 353 350 344 335 324 314 308 304 296 292 289 286 285 285 285 288 292 296 298 298 298
330 328 326 325 324 323 321 319 317 316 315 316 53 115 121 120 117 116 114 112 109 103 95 84 76 67 56 43 27 15 5 354 345 339 337 339 339 342 345 347 350 352 353 353 353 352 349 345 337 328 320 313 306 304 304 302 295 292 290 289 291 292 292 293 295 296 297 298 298
330 327 326 324 323 321 317 313 308 305 314 108 113 114 115 116 114 111 108 104 96 88 78 65 54 42 29 16 6 358 350 344 342 341 342 344 348 352 355 357 358 358 358 356 353 347 337 328 320 313 306 303 300 300 301 300 296 293 292 292 291 290 289 289 289 291 293 294 295
328 326 324 322 321 317 312 305 298 280 113 105 112 114 114 114 110 105 97 89 82 74 64 51 38 27 18 10 4 359 355 353 353 354 356 359 3 6 7 6 4 3 360 354 344 334 324 317 310 306 303 300 298 298 298 297 293 291 289 288 287 286 286 286 288 291 293 294 295
324 320 319 319 319 312 300 280 196 108 111 114 118 118 115 108 100 90 80 73 64 53 42 33 27 22 18 13 10 8 7 6 6 8 10 12 13 14 12 9 3 353 342 333 324 317 312 305 299 297 297 296 295 294 294 292 289 287 286 285 285 286 288 290 292 294 296 297 298
319 313 310 309 309 294 259 207 143 125 129 127 123 118 111 98 81 68 58 49 41 35 30 25 23 20 18 15 14 14 14 14 16 18 19 19 18 15 9 356 336 320 312 310 305 302 298 294 293 293 293 294 293 292 291 289 287 286 286 286 287 289 291 293 296 298 299 299 299
312 302 295 295 289 256 221 199 155 140 135 129 121 115 104 83 63 50 40 33 31 28 23 19 17 16 16 16 16 16 18 21 24 24 21 18 12 1 343 324 310 303 300 298 297 295 292 292 293 294 295 295 294 293 292 291 289 288 289 290 292 293 295 297 299 300 300 300 298
300 287 278 281 268 241 219 184 149 135 128 122 117 109 96 78 62 46 34 29 26 21 16 12 9 9 12 16 15 20 29 34 25 12 3 355 344 331 319 312 306 302 300 300 301 300 300 300 300 300 300 300 299 298 296 295 294 293 294 295 296 297 298 299 300 300 299 298 297
290 274 261 261 240 221 205 173 148 132 121 114 108 101 93 82 64 42 27 20 15 10 6 2 0 0 5 11 16 23 28 17 355 342 336 331 324 317 311 309 308 307 308 308 309 309 309 309 308 307 305 303 302 301 300 299 298 298 298 298 298 299 299 299 299 299 298 296 295
280 260 244 234 212 198 186 167 147 132 124 118 113 111 107 90 58 28 13 6 2 358 355 354 355 356 358 4 6 4 355 340 326 319 317 316 315 314 314 313 313 313 313 313 312 312 311 311 310 308 307 305 304 303 302 301 300 300 299 299 299 298 298 298 298 297 296 294 292
265 246 227 207 193 183 173 160 149 145 144 141 142 142 139 111 38 5 353 348 347 345 344 344 345 347 350 351 340 323 311 306 307 307 308 311 313 315 315 315 314 314 313 312 311 310 309 309 309 308 306 305 304 304 303 302 301 301 300 299 299 298 298 297 297 295 294 292 290
252 231 210 194 188 183 177 169 170 169 167 164 164 165 163 152 346 333 331 332 333 334 334 330 326 319 312 306 301 298 296 297 301 304 308 311 313 313 313 313 312 312 311 310 309 308 308 307 307 307 307 306 305 305 304 303 302 302 301 300 299 298 297 296 295 294 292 290 288
240 221 207 200 199 198 197 195 192 187 182 178 178 178 181 206 274 301 312 319 323 323 319 310 299 292 290 291 294 296 297 298 301 304 306 308 309 310 310 309 309 309 309 308 307 307 307 307 307 307 307 307 306 306 305 304 303 302 301 300 299 298 297 296 294 293 291 289 288
237 225 216 213 213 212 209 207 203 196 191 189 188 188 197 234 273 295 307 312 314 311 303 293 287 286 289 293 296 297 297 298 300 301 303 304 305 306 307 307 308 307 307 307 307 307 307 308 308 308 308 307 307 306 305 304 303 302 301 300 298 297 296 295 294 293 291 290 289
237 228 222 221 221 220 218 214 208 202 197 196 195 202 227 265 290 302 307 307 302 294 287 286 288 292 295 297 296 295 295 296 298 300 301 302 304 306 307 307 307 307 306 306 306 306 307 308 308 308 308 307 306 306 305 304 302 301 300 299 298 297 296 295 295 294 293 291 290
239 232 228 224 221 220 221 219 212 206 203 202 208 230 265 291 302 305 303 296 286 279 279 284 291 297 299 299 297 295 294 295 297 299 302 304 306 308 309 309 308 307 306 306 306 307 307 308 308 308 307 307 306 305 304 303 302 301 300 299 298 297 297 296 295 294 293 292 291
246 239 234 231 229 229 226 221 214 209 208 214 235 266 290 303 307 305 297 285 274 271 275 283 290 296 298 299 297 296 295 295 297 300 303 307 309 310 310 310 308 307 307 307 308 308 309 309 309 308 308 307 306 305 304 303 302 301 300 300 299 298 297 296 295 294 293 292 292
248 241 236 235 236 234 229 221 215 214 223 246 270 287 298 305 307 304 295 282 272 269 272 279 287 293 297 298 297 297 297 298 300 303 306 309 310 311 311 310 309 309 309 310 311 312 312 311 310 310 309 308 307 306 305 304 303 301 301 300 299 298 297 296 295 294 293 292 292
245 240 238 238 236 232 226 220 221 237 262 278 286 294 300 305 307 303 296 286 278 275 276 281 287 293 296 298 298 300 301 304 305 307 308 309 310 310 310 310 310 311 312 313 314 314 314 313 313 312 311 309 308 307 305 304 303 302 300 299 298 297 296 295 294 294 293 293 292
246 244 243 241 236 229 226 230 252 275 286 289 292 296 300 304 304 302 298 293 289 286 286 289 293 297 299 300 301 302 304 306 308 309 309 309 309 310 311 312 312 313 314 315 315 315 315 314 314 313 312 310 309 307 306 304 303 301 300 298 297 297 296 295 294 294 294 294 294
250 250 249 245 240 238 247 266 283 291 293 293 294 297 300 303 303 302 301 299 297 295 296 297 299 300 302 303 303 304 305 307 308 309 310 310 311 312 313 314 315 316 316 316 316 316 315 315 314 313 312 310 309 307 305 304 302 300 299 297 296 296 296 296 296 296 295 295 295
260 258 256 256 259 270 284 295 298 299 298 297 298 301 304 306 306 305 303 302 301 300 300 300 301 302 303 304 305 306 306 307 308 309 311 312 314 315 316 316 317 317 317 318 317 317 316 315 314 313 312 310 308 306 305 303 301 299 298 297 296 297 298 298 298 298 297 297 296
272 268 266 270 282 296 305 308 308 306 305 305 306 309 311 312 311 308 306 304 302 301 301 301 302 303 304 305 305 306 307 309 310 312 314 315 316 317 318 318 318 319 319 319 319 318 317 316 315 313 312 310 307 305 303 301 300 299 298 299 299 299 299 299 299 298 297 296 295
278 274 275 284 297 307 312 314 314 315 316 317 318 319 319 317 314 310 308 306 304 302 302 302 302 303 303 304 306 307 309 312 314 315 317 317 318 318 319 319 320 320 320 320 319 318 317 316 315 313 311 308 305 303 302 301 301 301 302 302 302 301 301 300 298 297 296 295 294
279 278 284 295 304 311 316 318 319 320 321 322 322 322 320 317 314 311 310 307 304 302 301 302 302 302 303 306 308 311 313 315 316 318 319 320 320 320 320 320 320 320 320 319 319 318 317 315 314 313 310 308 306 304 304 304 305 305 305 304 303 302 301 299 298 296 295 294 293
277 282 292 302 309 315 319 321 321 320 320 320 319 319 317 316 315 313 311 307 303 301 300 301 301 303 306 309 312 315 316 317 319 320 321 322 322 321 320 320 320 320 319 319 318 317 316 315 314 312 310 309 308 308 308 307 307 306 305 304 303 302 301 299 297 296 294 294 293
283 292 303 311 319 324 328 329 329 327 326 325 324 323 322 320 319 316 311 306 302 300 300 302 304 308 312 315 317 318 319 320 321 322 322 322 322 321 320 319 319 319 319 319 318 317 316 315 314 312 312 312 312 311 310 309 307 306 305 303 303 302 301 299 298 296 295 294 293
319 331 341 348 352 353 353 351 349 346 342 339 336 334 331 327 322 317 311 307 304 303 305 309 313 316 319 320 321 321 322 322 323 323 323 323 322 320 319 319 319 319 319 319 318 317 316 315 315 315 315 315 314 312 310 309 307 306 305 304 303 302 301 300 298 297 296 295 294
30 28 25 20 15 12 8 4 359 355 350 346 341 337 331 326 320 316 313 311 311 312 314 317 321 323 323 323 324 324 324 324 324 323 323 322 321 320 319 319 319 320 320 319 318 317 316 316 317 318 318 316 314 312 310 308 307 306 305 304 304 303 302 300 298 297 296 295 294
29 23 17 12 6 2 359 356 353 349 346 342 337 332 326 320 316 315 315 315 315 317 320 323 324 325 325 325 325 326 326 326 325 324 323 323 322 321 320 320 320 320 320 319 318 318 318 319 320 319 318 315 313 311 310 308 307 306 305 305 304 304 302 301 298 297 296 295 295
14 9 4 359 355 352 349 346 344 341 339 335 331 326 321 316 313 314 316 317 318 322 325 326 327 327 327 327 327 327 327 327 326 325 324 323 323 322 321 321 320 320 320 319 318 319 320 321 321 320 317 315 313 311 310 309 307 307 306 305 304 303 301 300 298 297 296 295 296
6 2 357 352 348 345 342 340 337 334 332 329 326 323 319 316 315 317 320 323 327 329 330 330 330 330 330 329 329 328 328 327 327 326 326 325 324 323 322 321 320 320 319 320 320 321 322 322 321 320 317 315 313 311 310 309 308 307 306 305 303 302 301 300 299 297 296 295 294
0 356 351 347 343 340 338 336 333 331 328 327 326 324 322 321 323 327 330 333 336 336 335 334 333 332 331 330 328 327 327 327 328 328 327 327 326 324 323 321 320 320 320 321 321 322 323 322 321 319 317 314 313 312 311 310 308 307 305 305 303 303 302 300 299 296 294 292 292
352 347 343 341 339 338 337 337 336 336 335 334 331 330 329 329 331 333 335 337 338 337 336 335 333 332 330 329 328 328 328 328 329 329 329 328 326 324 323 321 320 320 321 322 322 323 323 322 320 318 316 314 313 312 311 310 308 307 306 305 304 303 302 300 297 295 292 290 290
341 337 334 332 332 334 336 338 339 340 339 338 335 333 332 332 333 333 334 335 336 335 335 333 331 330 329 329 330 330 330 330 330 330 329 328 326 324 323 321 321 321 321 322 322 322 322 321 319 318 316 315 314 313 312 310 309 307 306 306 305 304 302 299 297 293 291 289 289
332 329 327 327 329 331 334 336 337 337 336 336 335 334 333 332 332 332 333 333 333 332 332 331 330 329 329 330 331 331 331 330 330 329 328 327 325 324 323 323 322 322 321 321 322 321 321 320 319 317 316 315 314 313 312 311 309 308 307 306 305 303 300 298 295 292 289 289 290
Height
787 786 785 784 783 782 780 779 778 776 775 774 772 770 768 766 765 765 765 765 765 764 764 764 763 764 764 764 764 765 765 766 767 768 769 770 770 771 772 773 774 774 775 775 776 776 777 778 778 779 779 780 780 780 780 779 779 779 779 779 779 780 780 780 781 781 782 782 783
786 785 784 783 782 780 779 778 777 775 774 773 771 770 768 767 766 765 765 765 765 765 765 765 765 765 765 765 766 766 767 768 768 769 770 770 771 772 772 773 773 774 775 775 776 776 777 778 778 779 779 779 779 779 778 778 778 778 778 779 779 780 780 780 780 781 781 781 781
785 784 783 782 780 780 778 777 776 775 774 772 771 770 768 767 767 766 766 766 765 765 765 766 766 766 766 767 767 768 768 769 770 770 770 771 771 771 772 773 773 774 774 775 775 776 777 777 778 778 778 778 778 777 777 777 777 778 778 778 779 779 779 779 780 780 780 780 780
784 783 782 780 780 778 777 776 775 774 773 772 771 770 769 768 767 767 767 767 766 767 767 767 767 768 768 768 769 769 770 770 770 770 771 771 771 772 772 773 774 774 775 775 775 776 776 777 777 777 777 777 777 777 777 777 777 777 778 778 778 778 778 778 779 779 779 779 779
783 782 781 780 779 778 777 775 775 774 773 772 771 770 769 768 768 768 768 768 768 768 768 768 769 769 770 770 770 770 770 771 771 771 771 771 772 773 773 774 774 774 774 775 775 775 776 776 776 776 776 776 776 776 776 776 777 777 777 777 777 777 777 777 777 778 778 777 777
782 781 780 779 778 777 776 775 774 773 772 771 771 770 770 769 769 769 769 769 769 770 770 770 770 770 771 771 771 771 771 771 771 772 772 772 773 773 773 774 774 774 774 774 775 775 775 776 775 775 775 775 775 775 775 775 775 775 775 775 775 776 776 776 776 776 776 776 776
781 780 779 778 777 777 776 775 774 773 772 771 771 770 770 770 770 770 770 770 770 771 771 771 772 772 772 772 772 772 772 772 772 772 772 772 773 773 773 773 774 774 774 774 775 775 775 775 775 774 774 774 774 774 774 774 774 774 774 775 775 775 775 775 775 775 775 775 775
780 780 779 778 777 776 775 775 774 773 772 772 771 771 771 771 771 771 771 771 771 772 772 772 772 772 773 773 772 772 772 772 772 772 772 772 772 773 773 773 773 773 773 774 774 774 774 774 774 774 774 774 774 774 774 774 774 774 774 774 774 774 774 774 774 774 774 774 774
780 779 778 777 777 776 775 775 774 773 773 773 772 772 772 772 772 772 772 772 772 772 772 772 772 772 773 773 773 772 772 772 772 772 772 772 772 772 772 772 772 773 773 773 774 774 774 774 773 773 773 773 773 773 773 773 773 773 773 773 773 773 773 773 773 773 773 772 772
780 779 778 777 776 776 775 775 774 774 774 773 773 773 773 773 773 773 773 773 772 772 772 772 772 772 772 772 773 772 772 772 772 772 771 771 771 771 771 772 772 773 773 773 773 773 773 773 773 773 773 772 772 772 772 772 772 771 771 771 771 771 771 771 771 771 771 771 770
780 779 778 777 777 776 775 775 775 775 774 774 773 773 773 773 773 773 773 773 773 772 772 772 772 772 772 772 772 772 772 772 772 772 771 771 771 771 771 772 772 772 772 772 773 772 772 772 772 772 772 771 771 771 771 771 771 770 770 770 770 770 770 770 770 770 770 769 769
779 778 778 777 777 776 776 775 775 775 774 774 774 774 774 774 773 773 773 773 773 773 772 772 772 772 772 772 773 773 772 772 772 772 771 771 771 771 771 771 771 771 771 772 772 772 772 771 771 771 771 771 770 770 770 770 770 770 769 769 769 769 768 768 768 768 768 768 767
779 778 777 777 777 777 776 776 775 775 775 775 774 774 774 774 773 773 773 773 773 773 772 772 772 772 772 772 772 772 772 772 772 772 771 771 771 771 771 771 771 771 771 771 771 771 771 771 771 770 770 770 770 770 769 769 769 768 768 768 767 767 767 767 767 767 766 766 766
778 777 777 777 777 776 776 776 775 775 775 775 774 774 774 773 773 773 773 773 773 773 772 772 772 772 772 772 772 772 772 772 772 771 771 771 770 770 770 770 771 771 771 771 771 771 770 770 770 770 769 769 769 769 768 768 768 767 767 767 766 766 765 765 765 765 765 764 764
778 777 777 777 777 776 776 775 775 775 775 774 774 774 774 773 773 773 773 773 773 773 772 772 772 772 772 772 772 772 771 771 771 771 771 770 770 770 770 770 770 770 770 770 770 770 770 769 769 769 768 768 768 767 767 767 767 766 766 765 765 765 764 764 764 763 763 763 762
778 777 777 777 776 776 775 775 775 775 775 774 774 774 773 773 773 773 773 773 772 772 772 772 772 772 771 771 771 771 771 771 771 770 770 770 770 770 770 770 770 770 770 770 769 769 769 768 768 768 767 767 767 766 766 765 765 765 764 764 764 763 763 762 762 761 761 761 760
778 777 777 777 776 776 775 775 775 775 774 774 774 773 773 773 773 773 773 772 772 772 772 772 771 771 771 771 771 771 771 770 770 770 770 770 770 770 770 770 769 769 769 769 768 768 768 767 767 767 766 766 765 765 765 764 764 763 763 762 762 761 761 760 760 760 760 759 759
778 777 777 776 776 775 775 775 774 774 774 774 773 773 773 773 773 773 773 772 772 772 771 771 771 771 771 771 771 770 770 770 770 770 770 770 769 769 769 769 769 768 768 768 767 767 766 766 766 765 765 765 764 764 763 763 762 762 761 761 760 760 759 759 759 758 758 757 757
778 777 777 776 775 775 774 774 774 774 774 773 773 773 773 773 773 772 772 772 772 771 771 771 771 770 770 770 770 770 770 770 769 769 769 769 768 768 768 768 768 767 767 766 766 765 765 765 764 764 764 763 762 762 761 761 760 760 760 759 759 758 758 757 757 756 756 755 755
777 776 776 776 775 775 774 773 773 773 773 773 773 772 772 772 772 772 772 771 771 771 770 770 770 770 770 770 770 769 769 769 769 768 768 768 768 767 767 767 766 766 765 765 765 764 764 763 763 762 762 761 761 760 760 760 759 758 758 757 757 756 756 755 755 755 754 754 753
776 776 775 775 775 774 774 773 773 773 772 772 772 772 772 772 771 771 771 771 770 770 770 770 770 769 769 769 769 768 768 768 768 767 767 767 766 766 766 765 765 765 764 764 763 763 762 762 761 761 760 760 759 759 758 758 757 756 756 755 755 754 754 753 753 752 752 751 751
776 775 775 775 774 774 773 773 772 772 772 771 771 771 771 771 770 770 770 770 770 769 769 769 769 769 768 768 768 767 767 767 767 766 766 766 765 765 765 764 764 763 763 763 762 761 761 760 760 760 759 758 758 757 756 756 755 755 754 753 753 752 752 751 751 750 750 750 749
775 775 774 774 774 773 773 772 772 771 771 771 771 770 770 770 769 769 769 769 769 769 768 768 768 768 767 767 767 766 766 766 765 765 765 765 764 764 763 763 763 762 762 761 761 760 760 759 758 758 757 757 756 755 755 754 753 753 752 751 751 750 750 749 749 749 748 747 747
774 774 773 773 773 772 772 772 771 771 771 770 770 770 769 768 768 768 768 768 768 768 768 767 767 767 767 766 766 765 765 765 765 764 764 763 763 763 762 762 761 761 760 760 760 759 758 758 757 756 755 755 754 754 753 752 752 751 750 750 749 748 748 747 747 746 746 745 745
774 773 773 773 772 772 771 771 771 771 770 770 770 769 768 768 767 767 767 767 767 767 767 767 766 766 766 765 765 765 764 764 763 763 762 762 762 761 761 761 760 760 759 759 758 758 757 756 755 755 754 753 752 752 751 750 750 749 749 748 747 746 745 745 744 744 744 743 743
774 773 773 773 772 772 771 771 771 770 770 770 769 768 767 767 766 766 766 766 766 766 766 766 765 765 765 765 764 764 763 763 762 762 761 761 760 760 760 760 759 759 758 757 757 756 755 755 754 753 752 751 751 750 749 749 748 748 747 746 745 745 744 743 742 741 741 741 740
774 774 774 773 773 772 772 771 770 770 770 769 768 767 767 766 765 765 765 765 765 765 765 765 765 765 764 764 763 763 762 762 761 761 760 760 759 759 758 758 758 757 756 756 755 754 754 753 752 751 751 750 749 748 748 747 746 746 745 745 744 743 742 741 740 740 739 738 738
774 774 774 774 773 772 772 771 770 770 769 768 768 767 766 765 765 765 764 764 764 764 764 764 764 764 763 763 762 762 761 761 760 760 759 759 758 758 757 756 756 755 755 754 753 753 752 751 750 750 749 748 748 747 746 745 745 744 743 743 742 741 740 740 739 738 737 736 735
774 774 773 773 772 772 771 771 770 769 768 768 767 766 765 765 765 764 764 764 764 764 764 764 763 763 762 762 761 760 760 760 759 759 758 757 757 756 755 755 754 754 753 752 752 751 750 750 749 748 747 747 746 745 745 744 743 742 741 741 740 740 739 738 737 736 735 734 733
773 773 773 772 772 771 771 770 770 769 768 767 767 766 765 765 764 764 764 763 763 763 763 763 762 761 761 760 760 759 759 759 758 757 757 756 755 755 754 753 753 752 751 751 750 749 749 748 747 747 746 745 745 744 743 742 741 741 740 739 738 738 737 736 735 734 733 732 731
772 772 772 771 771 771 770 770 769 768 768 767 766 766 765 765 764 764 763 763 763 763 762 762 761 760 760 759 759 758 758 757 757 756 755 755 754 753 752 752 751 750 750 749 748 748 747 746 746 745 745 744 743 742 742 741 740 739 738 737 736 735 735 734 733 732 731 730 729
772 771 771 771 770 770 770 769 769 768 767 767 766 765 765 764 764 763 763 763 762 762 761 760 760 759 759 758 758 757 757 756 756 755 754 754 753 752 751 750 750 749 748 748 747 746 746 745 745 744 743 743 742 741 740 739 738 737 736 735 735 734 733 732 731 730 729 728 727
771 771 771 770 770 770 769 769 768 768 767 766 765 765 764 764 763 763 763 762 762 761 760 759 759 758 758 757 757 756 756 755 755 754 753 752 751 750 750 749 748 748 747 746 746 745 745 744 743 743 742 741 740 740 739 738 737 736 735 734 733 732 731 730 729 728 727 726 725
771 771 770 770 770 770 769 769 768 767 767 766 765 765 764 764 763 763 762 761 761 760 760 759 758 758 757 757 756 755 755 754 753 752 752 751 750 749 748 748 747 747 746 745 745 744 743 743 742 741 741 740 739 738 737 736 735 734 733 732 731 730 729 728 727 726 726 725 724
771 771 771 771 770 770 770 769 768 768 767 766 765 765 764 764 763 762 762 761 760 760 759 758 758 757 756 756 755 754 754 753 752 751 750 750 749 748 747 746 746 745 745 744 744 743 742 742 741 740 740 739 737 736 735 734 733 732 731 730 729 728 727 726 726 725 724 723 722
772 772 771 771 771 770 770 769 768 768 767 766 765 765 764 764 763 762 761 761 760 759 758 758 757 756 755 755 754 753 752 751 750 750 749 748 747 747 746 745 745 745 744 743 743 742 741 740 740 739 738 737 736 735 734 733 731 730 729 728 727 726 725 725 724 723 722 721 721
773 772 772 771 771 770 770 769 768 767 767 766 765 765 764 763 762 762 761 760 760 759 758 757 756 755 755 754 753 752 751 750 750 749 748 747 746 746 745 744 744 743 743 742 741 741 740 739 739 738 737 735 734 733 732 731 730 729 728 727 726 725 724 723 722 721 721 720 719
773 773 772 772 771 770 770 769 768 767 766 766 765 765 764 763 762 762 761 760 759 758 757 756 755 754 754 753 752 751 750 750 749 748 747 746 745 745 744 743 743 742 742 741 740 740 739 738 737 736 735 734 733 732 731 730 729 728 727 726 725 723 723 722 721 720 719 718 718
774 773 773 772 771 770 770 769 768 767 766 766 765 765 764 763 762 761 760 759 758 757 756 755 754 754 753 752 751 750 749 749 748 747 746 745 745 744 743 742 742 741 740 740 739 738 738 737 736 735 734 733 732 731 730 728 727 726 725 724 723 722 721 720 719 718 717 716 716
774 773 773 772 771 770 769 768 768 767 766 765 765 764 763 762 761 760 760 759 757 756 755 755 754 753 752 751 750 749 748 748 747 746 745 745 744 743 742 741 741 740 740 739 738 737 736 735 735 734 733 732 730 730 728 727 726 725 724 723 722 720 719 718 717 716 715 714 713
773 773 772 771 771 770 769 768 767 766 765 765 764 763 762 761 760 760 759 758 757 756 755 754 753 752 751 750 749 748 747 746 746 745 745 744 743 743 742 741 740 739 738 738 737 736 735 734 733 732 731 730 730 728 727 726 725 723 722 721 720 719 718 716 715 714 713 712 711